Regional Weather Roundup
Issued by NWS

Home | Current Version | Previous Version | Text Only | Print | Product List | Glossary Off
Versions: 1 2 3 4 5 6 7 8 9 10 11 12 13 14 15 16 17 18 19 20 21 22 23 24 25 26 27 28 29 30 31 32 33 34 35 36 37 38 39 40 41 42 43 44 45 46 47 48 49 50

000
ASUS43 KLOT 202310
RWRIL

ILLINOIS REGIONAL WEATHER ROUNDUP
NATIONAL WEATHER SERVICE CHICAGO/ROMEOVILLE IL
600 PM CDT SAT SEP 20 2014

NOTE: "FAIR" INDICATES FEW OR NO CLOUDS BELOW 12,000 FEET WITH NO
SIGNIFICANT WEATHER AND/OR OBSTRUCTIONS TO VISIBILITY.

* THESE STATIONS ARE NOT UNDER NWS QUALITY CONTROL. THEY ALSO MAY NOT
  REPORT WEATHER SUCH AS PRECIPITATION OR FOG.

ILZ001-002-007-009-015-016-024-210000-
NORTHWEST ILLINOIS

CITY           SKY/WX    TMP DP  RH WIND       PRES   REMARKS
MOLINE         PTSUNNY   77  67  71 W7        29.81F
STERLING*      PTSUNNY   77  64  65 W18       29.81R
SAVANNA*       SUNNY     77  64  64 W7        29.79F
$$

ILZ003-004-008-010-011-017-018-210000-
NORTH CENTRAL ILLINOIS

CITY           SKY/WX    TMP DP  RH WIND       PRES   REMARKS
ROCKFORD       PTCLDY    75  64  68 W12       29.80R
FREEPORT*      SUNNY     74  66  77 W12G20    29.81F
ROCHELLE*      PTCLDY    74  65  74 W12       29.81R
DE KALB*       CLEAR     72  63  73 SW10      29.81S
PERU*          MOCLDY    75  70  83 W5        29.82S
$$

ILZ005-006-012>014-019>023-210000-
NORTHEAST ILLINOIS

CITY           SKY/WX    TMP DP  RH WIND       PRES   REMARKS
CHICAGO-OHARE  PTCLDY    77  65  66 SW8       29.78S
CHICAGO-MIDWAY PTCLDY    76  67  73 S12       29.79R
AURORA         CLEAR     75  63  66 SW9       29.80S
LANSING*       MOCLDY    74  68  82 W8        29.81S
JOLIET*        PTCLDY    73  64  72 SW5       29.81S
WAUKEGAN       CLEAR     71  65  81 SW7       29.76S
DUPAGE AIRPORT CLEAR     75  63  66 SW10      29.79R
KANKAKEE*      MOCLDY    76  70  81 SW3       29.82R
WHEELING       PTCLDY    76  62  62 SW8       29.79S
MORRIS*        PTCLDY    74  67  79 W5        29.81S
ROMEOVILLE*    PTCLDY    73  62  69 W5        29.80F
NORTHERLY ISL    N/A     75  66  73 S9          N/A
$$

LMZ740>746-210000-
SOUTHERN LAKE MICHIGAN

STATION/POSITION SKY/WX   TEMP    WIND        PRES    VSBY  WAVE
                          AIR SEA DIR/SP/G                  HT/PER
                          (F)     (DEG/KT/KT) (MB)    (MI)  (FT/S)
SOUTHERN BUOY              65 63  220/ 14/ 14 1007.5F         2/ 4
WAUKEGAN HARBOR            72     240/  9/ 11   N/A
HARRISON CRIB              74     230/  9/ 13   N/A
BURNHAM HARBOR             75     170/  4/ 10   N/A
CALUMET HARBOR             72     210/  5/  7 1007.8S
MICHIGAN CITY              69     180/  9/ 11   N/A
MICHIGAN CITY 6N           67 65  200/  6/  8   N/A           1/ 3
ST. JOSEPH                 67 66  190/  8/ 10   N/A           2/ 4
$$

ILZ025>027-034>036-040-047-049-050-058-095>099-210000-
WEST-CENTRAL ILLINOIS

CITY           SKY/WX    TMP DP  RH WIND       PRES   REMARKS
QUINCY         PTSUNNY   80  70  71 NW9       29.88S HX  83
GALESBURG*     CLOUDY    78  69  73 SW8       29.83S HX  80
MACOMB*        MOSUNNY   79  68  69 SW12      29.87F HX  81
JACKSONVILLE*  MOSUNNY   83  72  70 SW6       29.89S HX  88
PITTSFIELD*    MOSUNNY   83  67  58 SW9       29.90R HX  86
$$

ILZ028>032-037-038-041>044-048-051>054-059>061-210000-
CENTRAL ILLINOIS

CITY           SKY/WX    TMP DP  RH WIND       PRES   REMARKS
PONTIAC        PTCLDY    79  70  73 SW10G17   29.83R HX  81
DECATUR        LGT RAIN  75  71  87 W6        29.89F
PEORIA         MOSUNNY   80  67  64 SW13      29.83F HX  82
LACON*         PTSUNNY   76  68  76 W6        29.81S
LINCOLN*       MOSUNNY   81  69  67 SW7       29.84R HX  84
SPRINGFIELD    PTSUNNY   77  69  76 SW3       29.88S
TAYLORVILLE    PTSUNNY   79  68  69 SW6       29.89S HX  81
$$

ILZ033-039-045-046-055>057-062-063-210000-
EAST-CENTRAL ILLINOIS

CITY           SKY/WX    TMP DP  RH WIND       PRES   REMARKS
CHAMPAIGN      MOCLDY    71  68  90 E5        29.89F
DANVILLE*      RAIN      67  65  93 SW10      29.87S
RANTOUL*       MOCLDY    72  66  82 S10       29.89F
MATTOON        MOCLDY    80  68  66 SW13      29.90S HX  83
PARIS*         MOCLDY    79  68  68 SW7       29.90S HX  81
$$

ILZ079-100>102-210000-
SOUTHWEST ILLINOIS

CITY           SKY/WX    TMP DP  RH WIND       PRES   REMARKS
ALTON          MOSUNNY   82  66  57 SW7       29.91  HX  85
BELLEVILLE     MOSUNNY   84  69  60 VRB1      29.90F HX  88
CAHOKIA*       MOSUNNY   87  65  47 VRB5      29.90F HX  89
SPARTA*        MOSUNNY   84  68  58 SW7       29.93S HX  87
$$

ILZ064>066-069>071-074>076-080>082-084>086-088>090-092>094-210000-
SOUTH-CENTRAL ILLINOIS

CITY           SKY/WX    TMP DP  RH WIND       PRES   REMARKS
CARBONDALE     MOSUNNY   82  68  62 S10       29.93F HX  85
CAIRO*         MOSUNNY   83  68  61 S5        29.95F HX  86
EFFINGHAM*     MOCLDY    80  65  61 SW7       29.91S HX  82
MARION         PTSUNNY   84  68  58 SW12      29.95S HX  87
MT. VERNON     MOSUNNY   81  70  69 S7        29.93S HX  84
CENTRALIA*     MOSUNNY   81  66  61 SW6       29.92F HX  83
SALEM*         MOSUNNY   83  70  66 SW7       29.93S HX  87
METROPOLIS*    SUNNY     83  69  63 S7        29.95F HX  86
$$

ILZ067-068-072-073-078-083-087-091-210000-
SOUTHEAST ILLINOIS

CITY           SKY/WX    TMP DP  RH WIND       PRES   REMARKS
LAWRENCEVILLE  PTCLDY    81  67  62 SW9       29.93R HX  83
FLORA*         PTCLDY    81  67  61 SW9       29.92F HX  83
FAIRFIELD*     PTCLDY   N/A N/A N/A SW7       29.93S
HARRISBURG*    MOCLDY    82  67  58 SW9       29.96R HX  85
ROBINSON*      PTCLDY    83  68  61 SW12      29.92S HX  86
CARMI*         MOCLDY    82  69  64 SW6       29.94R HX  86
$$

ABBREVIATIONS USED IN REMARKS
   TC - TEMPERATURE IN CELSIUS
  WCI - WIND CHILL INDEX
   HX - HEAT INDEX
  VSB - VISIBILITY
$$




USA.gov is the U.S. government's official web portal to all federal, state and local government web resources and services.